• In Russia
  • List of Countries
  • For 7 days
  • Water Temperature
  • Satellite Maps
  • Weather Map
  • Weather Widgets
  • user-avatar
    Login

    Hourly Weather Salta

    Today, 21 October, Saturday

    Time Temperature Precipitation Wind Pressure Humidity
    00:00 +21°C° 0 mm 1 mps 648 mmHg 58%
    01:00 +21°C° 0 mm 1 mps 648 mmHg 58%
    02:00 +21°C° 0 mm 1 mps 648 mmHg 57%
    03:00 +21°C° 0 mm 1 mps 648 mmHg 56%
    04:00 +21°C° 0 mm 1 mps 649 mmHg 55%
    05:00 +20°C° 0 mm 1 mps 649 mmHg 54%
    06:00 +21°C° 0 mm 2 mps 650 mmHg 53%
    07:00 +23°C° 0 mm 2 mps 651 mmHg 52%
    08:00 +25°C° 0 mm 3 mps 653 mmHg 51%
    09:00 +25°C° 0.3 mm 3 mps 653 mmHg 53%
    10:00 +25°C° 0.3 mm 3 mps 653 mmHg 55%
    11:00 +26°C° 0.3 mm 4 mps 653 mmHg 57%
    12:00 +25°C° 0.5 mm 4 mps 653 mmHg 58%
    13:00 +25°C° 0.5 mm 4 mps 652 mmHg 60%
    14:00 +25°C° 0.5 mm 4 mps 652 mmHg 62%
    15:00 +22°C° 0.3 mm 4 mps 652 mmHg 66%
    16:00 +21°C° 0.3 mm 4 mps 651 mmHg 70%
    17:00 +20°C° 0.3 mm 4 mps 651 mmHg 74%
    18:00 +19°C° 0.2 mm 3 mps 652 mmHg 78%
    19:00 +18°C° 0.2 mm 3 mps 652 mmHg 81%
    20:00 +17°C° 0.2 mm 3 mps 653 mmHg 84%
    21:00 +17°C° 0.2 mm 2 mps 654 mmHg 84%
    22:00 +17°C° 0.2 mm 2 mps 654 mmHg 84%
    23:00 +17°C° 0.2 mm 2 mps 655 mmHg 84%

    Tomorrow, 22 October, Sunday

    Time Temperature Precipitation Wind Pressure Humidity
    00:00 +17°C° 0.2 mm 2 mps 654 mmHg 83%
    01:00 +17°C° 0.2 mm 2 mps 654 mmHg 83%
    02:00 +16°C° 0.2 mm 2 mps 654 mmHg 82%
    03:00 +16°C° 0.1 mm 2 mps 654 mmHg 82%
    04:00 +16°C° 0.1 mm 2 mps 654 mmHg 82%
    05:00 +16°C° 0.1 mm 2 mps 654 mmHg 81%
    06:00 +15°C° 0.1 mm 2 mps 654 mmHg 80%
    07:00 +15°C° 0.1 mm 2 mps 655 mmHg 78%
    08:00 +15°C° 0.1 mm 2 mps 655 mmHg 76%
    09:00 +16°C° 0 mm 2 mps 655 mmHg 73%
    10:00 +17°C° 0 mm 2 mps 655 mmHg 69%
    11:00 +17°C° 0 mm 2 mps 655 mmHg 65%
    12:00 +18°C° 0 mm 2 mps 654 mmHg 63%
    13:00 +19°C° 0 mm 2 mps 653 mmHg 61%
    14:00 +20°C° 0 mm 2 mps 653 mmHg 58%
    15:00 +19°C° 0 mm 2 mps 652 mmHg 60%
    16:00 +19°C° 0 mm 2 mps 651 mmHg 62%
    17:00 +19°C° 0 mm 2 mps 651 mmHg 63%
    18:00 +18°C° 0 mm 2 mps 651 mmHg 68%
    19:00 +17°C° 0 mm 2 mps 651 mmHg 72%
    20:00 +16°C° 0 mm 1 mps 651 mmHg 76%
    21:00 +16°C° 0 mm 1 mps 651 mmHg 77%
    22:00 +16°C° 0 mm 1 mps 652 mmHg 79%
    23:00 +15°C° 0 mm 1 mps 652 mmHg 80%

    Day after tomorrow, 23 October, Monday

    Time Temperature Precipitation Wind Pressure Humidity
    00:00 +15°C° 0 mm 1 mps 651 mmHg 80%
    01:00 +15°C° 0 mm 1 mps 651 mmHg 80%
    02:00 +15°C° 0 mm 1 mps 650 mmHg 80%
    03:00 +15°C° 0 mm 1 mps 650 mmHg 79%
    04:00 +14°C° 0 mm 1 mps 650 mmHg 77%
    05:00 +14°C° 0 mm 1 mps 650 mmHg 75%
    06:00 +16°C° 0 mm 1 mps 651 mmHg 67%
    07:00 +18°C° 0 mm 1 mps 652 mmHg 59%
    08:00 +20°C° 0 mm 1 mps 652 mmHg 51%
    09:00 +21°C° 0 mm 2 mps 652 mmHg 47%
    10:00 +24°C° 0 mm 2 mps 653 mmHg 42%
    11:00 +26°C° 0 mm 2 mps 653 mmHg 37%
    12:00 +27°C° 0 mm 3 mps 652 mmHg 36%
    13:00 +28°C° 0 mm 3 mps 651 mmHg 34%
    14:00 +29°C° 0 mm 3 mps 651 mmHg 33%
    15:00 +28°C° 0 mm 3 mps 650 mmHg 35%
    16:00 +27°C° 0 mm 3 mps 650 mmHg 37%
    17:00 +27°C° 0 mm 4 mps 649 mmHg 39%
    18:00 +25°C° 0 mm 3 mps 649 mmHg 47%
    19:00 +23°C° 0 mm 2 mps 649 mmHg 55%
    20:00 +20°C° 0 mm 1 mps 650 mmHg 63%
    21:00 +20°C° 0 mm 1 mps 650 mmHg 65%
    22:00 +19°C° 0 mm 1 mps 650 mmHg 66%
    23:00 +19°C° 0 mm 1 mps 650 mmHg 68%

    24 October, Tuesday

    Time Temperature Precipitation Wind Pressure Humidity
    00:00 +19°C° 0 mm 1 mps 649 mmHg 67%
    01:00 +18°C° 0 mm 1 mps 649 mmHg 66%
    02:00 +18°C° 0 mm 1 mps 649 mmHg 66%
    03:00 +18°C° 0 mm 1 mps 649 mmHg 64%
    04:00 +17°C° 0 mm 2 mps 649 mmHg 62%
    05:00 +17°C° 0 mm 2 mps 649 mmHg 60%
    06:00 +18°C° 0 mm 2 mps 650 mmHg 54%
    07:00 +20°C° 0 mm 2 mps 651 mmHg 48%
    08:00 +23°C° 0 mm 2 mps 651 mmHg 42%
    09:00 +25°C° 0 mm 2 mps 652 mmHg 38%
    10:00 +27°C° 0 mm 3 mps 652 mmHg 35%
    11:00 +28°C° 0 mm 3 mps 652 mmHg 31%
    12:00 +29°C° 0 mm 3 mps 651 mmHg 30%
    13:00 +30°C° 0 mm 3 mps 650 mmHg 29%
    14:00 +32°C° 0 mm 4 mps 650 mmHg 29%
    15:00 +30°C° 0 mm 4 mps 649 mmHg 31%
    16:00 +30°C° 0 mm 4 mps 649 mmHg 33%
    17:00 +29°C° 0 mm 3 mps 649 mmHg 36%
    18:00 +27°C° 0 mm 3 mps 649 mmHg 44%
    19:00 +25°C° 0 mm 2 mps 649 mmHg 52%
    20:00 +23°C° 0 mm 2 mps 649 mmHg 60%
    21:00 +21°C° 0.1 mm 2 mps 650 mmHg 61%
    22:00 +22°C° 0.1 mm 1 mps 650 mmHg 62%
    23:00 +21°C° 0.1 mm 1 mps 650 mmHg 64%

    25 October, Wednesday

    Time Temperature Precipitation Wind Pressure Humidity
    00:00 +21°C° 0.2 mm 1 mps 649 mmHg 64%
    01:00 +21°C° 0.2 mm 1 mps 649 mmHg 64%
    02:00 +21°C° 0.2 mm 1 mps 649 mmHg 64%
    03:00 +20°C° 0 mm 1 mps 649 mmHg 65%
    04:00 +20°C° 0 mm 1 mps 649 mmHg 65%
    05:00 +20°C° 0 mm 1 mps 649 mmHg 65%
    06:00 +22°C° 0 mm 1 mps 649 mmHg 58%
    07:00 +24°C° 0 mm 1 mps 650 mmHg 50%
    08:00 +26°C° 0 mm 2 mps 651 mmHg 43%
    09:00 +28°C° 0 mm 2 mps 651 mmHg 39%
    10:00 +29°C° 0 mm 2 mps 651 mmHg 36%
    11:00 +31°C° 0 mm 3 mps 651 mmHg 32%
    12:00 +33°C° 0.2 mm 3 mps 650 mmHg 31%
    13:00 +33°C° 0.2 mm 3 mps 649 mmHg 30%
    14:00 +34°C° 0.2 mm 4 mps 648 mmHg 28%
    15:00 +33°C° 0.9 mm 4 mps 648 mmHg 33%
    16:00 +32°C° 0.9 mm 4 mps 648 mmHg 38%
    17:00 +30°C° 0.9 mm 4 mps 647 mmHg 43%
    18:00 +28°C° 1.4 mm 3 mps 647 mmHg 52%
    19:00 +26°C° 1.4 mm 2 mps 648 mmHg 61%
    20:00 +24°C° 1.4 mm 1 mps 648 mmHg 69%
    21:00 +23°C° 0.2 mm 1 mps 648 mmHg 71%
    22:00 +23°C° 0.2 mm 1 mps 648 mmHg 73%
    23:00 +22°C° 0.2 mm 1 mps 649 mmHg 74%

    26 October, Thursday

    Time Temperature Precipitation Wind Pressure Humidity
    00:00 +22°C° 0 mm 1 mps 648 mmHg 74%
    01:00 +22°C° 0 mm 1 mps 648 mmHg 75%
    02:00 +21°C° 0 mm 1 mps 648 mmHg 75%
    03:00 +21°C° 0 mm 1 mps 648 mmHg 74%
    04:00 +21°C° 0 mm 1 mps 649 mmHg 72%
    05:00 +20°C° 0 mm 1 mps 649 mmHg 71%
    06:00 +22°C° 0 mm 1 mps 650 mmHg 66%
    07:00 +23°C° 0 mm 2 mps 651 mmHg 60%
    08:00 +24°C° 0 mm 2 mps 652 mmHg 55%
    09:00 +25°C° 0 mm 2 mps 652 mmHg 51%
    10:00 +26°C° 0 mm 2 mps 652 mmHg 48%
    11:00 +28°C° 0 mm 3 mps 652 mmHg 45%
    12:00 +28°C° 0.2 mm 3 mps 651 mmHg 43%
    13:00 +29°C° 0.2 mm 3 mps 650 mmHg 41%
    14:00 +30°C° 0.2 mm 3 mps 650 mmHg 39%
    15:00 +29°C° 0.3 mm 3 mps 650 mmHg 41%
    16:00 +29°C° 0.3 mm 3 mps 649 mmHg 43%
    17:00 +29°C° 0.3 mm 3 mps 649 mmHg 45%
    18:00 +27°C° 0 mm 3 mps 650 mmHg 52%
    19:00 +25°C° 0 mm 3 mps 650 mmHg 59%
    20:00 +24°C° 0 mm 2 mps 650 mmHg 66%
    21:00 +23°C° 0 mm 2 mps 650 mmHg 67%
    22:00 +23°C° 0 mm 1 mps 651 mmHg 69%
    23:00 +23°C° 0 mm 1 mps 651 mmHg 71%
    Show more